• în Republica Moldova
  • Lista ţărilor
  • Pe 7 zile
  • Temperatura apei
  • Hartă satelitară
  • Meteo pe hartă
  • Widget-uri
  • user-avatar
    Intrare

    Meteo pe oră la Darwin

    Astăzi, 23 Februarie, Vineri

    Timp Temperatura Precipitaţii Vânt Presiune Umiditate
    00:00 +28°C° 0 mm 3 m/s 754 mmHg 88%
    01:00 +28°C° 0,1 mm 3 m/s 754 mmHg 88%
    02:00 +28°C° 0,1 mm 3 m/s 754 mmHg 88%
    03:00 +28°C° 0 mm 3 m/s 754 mmHg 89%
    04:00 +28°C° 0,1 mm 3 m/s 754 mmHg 88%
    05:00 +28°C° 0,1 mm 3 m/s 754 mmHg 88%
    06:00 +28°C° 0,1 mm 3 m/s 754 mmHg 88%
    07:00 +30°C° 0 mm 3 m/s 755 mmHg 83%
    08:00 +32°C° 0 mm 4 m/s 755 mmHg 79%
    09:00 +33°C° 0 mm 4 m/s 755 mmHg 74%
    10:00 +34°C° 0,1 mm 4 m/s 755 mmHg 71%
    11:00 +35°C° 0,1 mm 4 m/s 754 mmHg 67%
    12:00 +36°C° 0,1 mm 4 m/s 754 mmHg 64%
    13:00 +36°C° 0,2 mm 4 m/s 754 mmHg 64%
    14:00 +36°C° 0,2 mm 4 m/s 754 mmHg 65%
    15:00 +35°C° 0 mm 4 m/s 753 mmHg 72%
    16:00 +34°C° 1,6 mm 4 m/s 753 mmHg 76%
    17:00 +33°C° 1,6 mm 4 m/s 753 mmHg 80%
    18:00 +31°C° 1,6 mm 3 m/s 753 mmHg 85%
    19:00 +30°C° 1,5 mm 3 m/s 754 mmHg 86%
    20:00 +30°C° 1,5 mm 3 m/s 754 mmHg 87%
    21:00 +29°C° 1,5 mm 3 m/s 755 mmHg 88%
    22:00 +29°C° 0,3 mm 3 m/s 755 mmHg 89%
    23:00 +28°C° 0,3 mm 2 m/s 755 mmHg 90%

    Mâine, 24 Februarie, Sâmbătă

    Timp Temperatura Precipitaţii Vânt Presiune Umiditate
    00:00 +28°C° 0,3 mm 2 m/s 755 mmHg 90%
    01:00 +28°C° 0,1 mm 2 m/s 754 mmHg 89%
    02:00 +28°C° 0,1 mm 2 m/s 754 mmHg 88%
    03:00 +28°C° 0,1 mm 2 m/s 753 mmHg 86%
    04:00 +28°C° 0,1 mm 3 m/s 754 mmHg 87%
    05:00 +28°C° 0,1 mm 3 m/s 754 mmHg 89%
    06:00 +28°C° 0,1 mm 3 m/s 754 mmHg 90%
    07:00 +29°C° 0,3 mm 3 m/s 755 mmHg 86%
    08:00 +30°C° 0,3 mm 3 m/s 755 mmHg 83%
    09:00 +31°C° 0,3 mm 2 m/s 756 mmHg 79%
    10:00 +34°C° 0,2 mm 3 m/s 755 mmHg 73%
    11:00 +35°C° 0,2 mm 3 m/s 755 mmHg 67%
    12:00 +36°C° 0,2 mm 3 m/s 755 mmHg 61%
    13:00 +36°C° 0,7 mm 4 m/s 754 mmHg 64%
    14:00 +35°C° 0,7 mm 4 m/s 754 mmHg 67%
    15:00 +35°C° 0,7 mm 4 m/s 753 mmHg 69%
    16:00 +34°C° 0,2 mm 4 m/s 753 mmHg 73%
    17:00 +33°C° 0,2 mm 4 m/s 753 mmHg 78%
    18:00 +31°C° 0,2 mm 3 m/s 754 mmHg 82%
    19:00 +31°C° 0 mm 3 m/s 754 mmHg 82%
    20:00 +30°C° 0 mm 3 m/s 754 mmHg 83%
    21:00 +29°C° 0 mm 2 m/s 755 mmHg 83%
    22:00 +29°C° 0 mm 2 m/s 755 mmHg 84%
    23:00 +29°C° 0 mm 2 m/s 755 mmHg 84%

    Poimâine, 25 Februarie, Duminică

    Timp Temperatura Precipitaţii Vânt Presiune Umiditate
    00:00 +29°C° 0 mm 2 m/s 755 mmHg 84%
    01:00 +29°C° 0 mm 2 m/s 754 mmHg 85%
    02:00 +29°C° 0 mm 2 m/s 754 mmHg 86%
    03:00 +29°C° 0 mm 2 m/s 754 mmHg 86%
    04:00 +29°C° 0 mm 2 m/s 754 mmHg 87%
    05:00 +29°C° 0 mm 2 m/s 754 mmHg 88%
    06:00 +29°C° 0 mm 2 m/s 754 mmHg 88%
    07:00 +30°C° 0,1 mm 2 m/s 754 mmHg 84%
    08:00 +31°C° 0,1 mm 3 m/s 755 mmHg 80%
    09:00 +33°C° 0,1 mm 3 m/s 755 mmHg 75%
    10:00 +34°C° 0,1 mm 3 m/s 755 mmHg 72%
    11:00 +35°C° 0,1 mm 3 m/s 754 mmHg 70%
    12:00 +36°C° 0,1 mm 4 m/s 754 mmHg 67%
    13:00 +35°C° 0,5 mm 4 m/s 753 mmHg 67%
    14:00 +35°C° 0,5 mm 4 m/s 753 mmHg 67%
    15:00 +35°C° 0,5 mm 4 m/s 752 mmHg 66%
    16:00 +34°C° 0,1 mm 3 m/s 752 mmHg 71%
    17:00 +33°C° 0,1 mm 3 m/s 753 mmHg 75%
    18:00 +31°C° 0,1 mm 3 m/s 753 mmHg 80%
    19:00 +31°C° 0 mm 3 m/s 753 mmHg 82%
    20:00 +30°C° 0 mm 3 m/s 754 mmHg 84%
    21:00 +30°C° 0 mm 3 m/s 754 mmHg 85%
    22:00 +30°C° 0 mm 3 m/s 754 mmHg 86%
    23:00 +30°C° 0 mm 3 m/s 754 mmHg 87%

    26 Februarie, Luni

    Timp Temperatura Precipitaţii Vânt Presiune Umiditate
    00:00 +29°C° 0 mm 3 m/s 754 mmHg 87%
    01:00 +29°C° 0,2 mm 3 m/s 754 mmHg 88%
    02:00 +29°C° 0,2 mm 3 m/s 753 mmHg 89%
    03:00 +29°C° 0,2 mm 3 m/s 753 mmHg 89%
    04:00 +29°C° 0 mm 3 m/s 753 mmHg 89%
    05:00 +29°C° 0 mm 3 m/s 753 mmHg 89%
    06:00 +29°C° 0 mm 3 m/s 754 mmHg 89%
    07:00 +30°C° 0,5 mm 3 m/s 754 mmHg 85%
    08:00 +31°C° 0,5 mm 3 m/s 755 mmHg 81%
    09:00 +33°C° 0,5 mm 3 m/s 755 mmHg 77%
    10:00 +34°C° 0,4 mm 3 m/s 755 mmHg 73%
    11:00 +35°C° 0,4 mm 2 m/s 755 mmHg 68%
    12:00 +36°C° 0,4 mm 2 m/s 754 mmHg 64%
    13:00 +36°C° 1,2 mm 2 m/s 754 mmHg 66%
    14:00 +35°C° 1,2 mm 3 m/s 753 mmHg 67%
    15:00 +35°C° 1,2 mm 3 m/s 752 mmHg 69%
    16:00 +34°C° 0,1 mm 2 m/s 752 mmHg 71%
    17:00 +32°C° 0,1 mm 2 m/s 753 mmHg 74%
    18:00 +32°C° 0,1 mm 2 m/s 753 mmHg 76%
    19:00 +31°C° 0 mm 2 m/s 753 mmHg 78%
    20:00 +30°C° 0 mm 2 m/s 754 mmHg 79%
    21:00 +30°C° 0 mm 2 m/s 755 mmHg 81%
    22:00 +29°C° 0,1 mm 2 m/s 755 mmHg 82%
    23:00 +29°C° 0,1 mm 2 m/s 755 mmHg 83%

    27 Februarie, Marţi

    Timp Temperatura Precipitaţii Vânt Presiune Umiditate
    00:00 +29°C° 0,1 mm 2 m/s 755 mmHg 84%
    01:00 +29°C° 0,5 mm 2 m/s 754 mmHg 86%
    02:00 +29°C° 0,5 mm 3 m/s 754 mmHg 88%
    03:00 +28°C° 0,5 mm 3 m/s 753 mmHg 90%
    04:00 +28°C° 0,8 mm 3 m/s 753 mmHg 91%
    05:00 +28°C° 0,8 mm 3 m/s 754 mmHg 91%
    06:00 +28°C° 0,8 mm 2 m/s 754 mmHg 92%
    07:00 +29°C° 0,1 mm 2 m/s 755 mmHg 88%
    08:00 +30°C° 0,1 mm 2 m/s 755 mmHg 85%
    09:00 +31°C° 0,1 mm 2 m/s 755 mmHg 81%
    10:00 +33°C° 0,6 mm 3 m/s 755 mmHg 77%
    11:00 +34°C° 0,6 mm 3 m/s 755 mmHg 73%
    12:00 +35°C° 0,6 mm 3 m/s 755 mmHg 69%
    13:00 +35°C° 0,6 mm 3 m/s 754 mmHg 69%
    14:00 +35°C° 0,6 mm 3 m/s 754 mmHg 69%
    15:00 +35°C° 0,6 mm 4 m/s 753 mmHg 68%
    16:00 +34°C° 0,1 mm 3 m/s 754 mmHg 72%
    17:00 +33°C° 0,1 mm 3 m/s 754 mmHg 75%
    18:00 +31°C° 0,1 mm 3 m/s 754 mmHg 79%
    19:00 +31°C° 0,2 mm 3 m/s 754 mmHg 81%
    20:00 +30°C° 0,2 mm 2 m/s 755 mmHg 82%
    21:00 +29°C° 0,2 mm 2 m/s 755 mmHg 84%
    22:00 +29°C° 0,1 mm 3 m/s 755 mmHg 85%
    23:00 +29°C° 0,1 mm 3 m/s 755 mmHg 86%

    28 Februarie, Miercuri

    Timp Temperatura Precipitaţii Vânt Presiune Umiditate
    00:00 +29°C° 0,1 mm 3 m/s 755 mmHg 86%
    01:00 +29°C° 1 mm 3 m/s 755 mmHg 88%
    02:00 +28°C° 1 mm 3 m/s 754 mmHg 90%
    03:00 +28°C° 1 mm 2 m/s 754 mmHg 91%
    04:00 +28°C° 2 mm 2 m/s 755 mmHg 91%
    05:00 +28°C° 2 mm 2 m/s 755 mmHg 90%
    06:00 +28°C° 2 mm 2 m/s 755 mmHg 89%
    07:00 +29°C° 0 mm 2 m/s 755 mmHg 86%
    08:00 +29°C° 0 mm 2 m/s 755 mmHg 83%
    09:00 +30°C° 0 mm 2 m/s 755 mmHg 80%
    10:00 +31°C° 0 mm 2 m/s 755 mmHg 76%
    11:00 +32°C° 0 mm 2 m/s 754 mmHg 71%
    12:00 +34°C° 0 mm 3 m/s 754 mmHg 67%
    13:00 +35°C° 0 mm 3 m/s 754 mmHg 66%
    14:00 +35°C° 0 mm 3 m/s 753 mmHg 65%
    15:00 +35°C° 0 mm 4 m/s 753 mmHg 65%
    16:00 +34°C° 0,2 mm 4 m/s 753 mmHg 69%
    17:00 +33°C° 0,2 mm 3 m/s 754 mmHg 74%
    18:00 +31°C° 0,2 mm 3 m/s 754 mmHg 79%
    19:00 +31°C° 0,2 mm 3 m/s 755 mmHg 81%
    20:00 +30°C° 0,2 mm 3 m/s 755 mmHg 83%
    21:00 +29°C° 0,2 mm 3 m/s 756 mmHg 85%
    22:00 +29°C° 0 mm 3 m/s 755 mmHg 85%
    23:00 +29°C° 0 mm 3 m/s 755 mmHg 86%
    Arată mai mult